"Pseudo-MPEC" for P10Lfez

Created 2019 Jan 12 1:18:31 UT using Find_Orb

Click here for an explanation of pseudo-MPECs

 
 Astrometry: 
     P10Lfez  C2019 01 08jC^5xAOAstrometry5nW4kY8b'gQmb[Ssvu-B*3gNqLl,;;=*,QBF51
     P10Lfez  C2019 01 08[3xT/s;ioF6NM9T@yo[SAmuj^D_=Zrredacted;;4'hOp8OLN#A1F51
     P10Lfez  C2019 01 08P^dud?$@yv[gXJ=(FUj$/25),p8C+h\IcK]$k6UM$click3QuomAF51
     P10Lfez  C2019 01 080+T-jwi9:jeQnVhI]l6hghere,5.0MTxPi::tIHekX:[Cl*T4-kxF51
     P10Lfez ^C2019 01 09.51307510 08 35.883+28 57 30.55   ~19JI 21.95GVNEOCP568
     P10Lfez ^C2019 01 09.51426310 08 36.180+28 57 25.26   ~19JI 21.90GVNEOCP568
     P10Lfez ^C2019 01 09.51544310 08 36.475+28 57 20.05   ~19JI 21.83GVNEOCP568
     P10Lfez KC2019 01 11vcF',au[dwFdiXX$$b08J!rH[?,+OT[l!y8ZZiZD2for8V7n[S$MH21
     P10Lfez KC2019 01 11WFnf\aAR:7Dtq4.oFFK7;`k?hnEh@aaQaVqwq8Pe)t9bGI/GObikH21
     P10Lfez KC2019 01 11vae8q]5BOe-Y:FYm)enXfWG1explanationmYK(X+%sq=jTR2)r?H21

Station data:
(568) Mauna Kea  (N19.826116 W155.472200)  US/Hawaii.
(F51) Pan-STARRS 1, Haleakala  (N20.707235 W156.255910)  US/Hawaii.
   Observers N. Primak, A. Schultz, S. Watters, J. Thiel, T. Goggia. Measurer
   PS1 Science Consortium. 1.8-m Ritchey-Chrétien + CCD.
(H21) Astronomical Research Observatory, Westfield  (N39.483057 W87.968270)
   US/Illinois. 0.76-m f/3.0 astrograph + CCD.

Orbital elements:  P10Lfez
   Perihelion 2019 Mar 16.028737 +/- 0.379 TT =  0:41:22 (JD 2458558.528737)
Epoch 2019 Jan 11.0 TT = JDT 2458494.5   Earth MOID: 0.0188   AutoNEOCP
M 319.58071313 +/- 0.9              (J2000 ecliptic)
n   0.63126791 +/- 0.0116           Peri.  264.21273 +/- 0.17
a   1.34584043 +/- 0.0165           Node   299.98398 +/- 0.040
e   0.4532492 +/- 0.0083            Incl.   14.09623 +/- 0.22
P   1.56/570.27d           H 24.9   G  0.15   U  9.7  
q 0.73583929 +/- 0.00218    Q 1.95584158 +/- 0.0357
From 10 observations 2019 Jan. 8-11; mean residual 0".10
Residuals in arcseconds: 
190108 F51  .12-  .13-    190109 568  .08-  .03+    190111 H21  .08+  .10-    
190108 F51  .15+  .00     190109 568  .03-  .04-    190111 H21  .16-  .18+    
190108 F51  .07+  .05+    190109 568  .02+  .05-    
190108 F51  .03-  .13+    190111 H21  .11+  .06-    

Ephemerides (geocentric):
Date (UTC) HH   RA              Dec         delta   r     elong  mag " sig PA
---- -- -- --  -------------   -----------  ------ ------ -----  --- ---- ---
2019 01 12 01  10 21 52.428   +25 07 44.38  .10572 1.0677 141.0 21.7 .592  31
2019 01 12 02  10 22 07.496   +25 03 06.54  .10536 1.0674 141.0 21.7 .603  30
2019 01 12 03  10 22 22.637   +24 58 26.72  .10500 1.0671 141.0 21.6 .615  28
2019 01 12 04  10 22 37.852   +24 53 44.92  .10465 1.0668 141.0 21.6 .627  27
2019 01 12 05  10 22 53.140   +24 49 01.09  .10429 1.0665 140.9 21.6 .640  26
2019 01 12 06  10 23 08.504   +24 44 15.24  .10393 1.0661 140.9 21.6 .653  24
2019 01 12 07  10 23 23.943   +24 39 27.33  .10358 1.0658 140.9 21.6 .667  23
2019 01 12 08  10 23 39.458   +24 34 37.35  .10322 1.0655 140.9 21.6 .681  22
2019 01 12 09  10 23 55.049   +24 29 45.28  .10287 1.0652 140.8 21.6 .696  20
2019 01 12 10  10 24 10.718   +24 24 51.10  .10251 1.0649 140.8 21.6 .711  19
2019 01 12 11  10 24 26.465   +24 19 54.79  .10216 1.0646 140.8 21.6 .727  18
2019 01 12 12  10 24 42.290   +24 14 56.33  .10181 1.0643 140.7 21.6 .744  16
2019 01 12 13  10 24 58.194   +24 09 55.70  .10145 1.0639 140.7 21.6 .761  15
2019 01 12 14  10 25 14.178   +24 04 52.87  .10110 1.0636 140.7 21.6 .779  14
2019 01 12 15  10 25 30.242   +23 59 47.84  .10075 1.0633 140.7 21.6 .798  13
2019 01 12 16  10 25 46.388   +23 54 40.56  .10040 1.0630 140.6 21.6 .818  11
2019 01 12 17  10 26 02.615   +23 49 31.03  .10004 1.0627 140.6 21.5 .838  10
2019 01 12 18  10 26 18.924   +23 44 19.23  .09969 1.0624 140.6 21.5 .859   9
2019 01 12 19  10 26 35.317   +23 39 05.12  .09934 1.0621 140.5 21.5 .880   8
2019 01 12 20  10 26 51.794   +23 33 48.70  .09899 1.0617 140.5 21.5 .903   6
2019 01 12 21  10 27 08.355   +23 28 29.92  .09864 1.0614 140.5 21.5 .926   5
2019 01 12 22  10 27 25.001   +23 23 08.79  .09829 1.0611 140.4 21.5 .951   4
2019 01 12 23  10 27 41.733   +23 17 45.26  .09794 1.0608 140.4 21.5 .976   3
2019 01 13 00  10 27 58.552   +23 12 19.32  .09759 1.0605 140.4 21.5 1.00   2
2019 01 13 01  10 28 15.458   +23 06 50.94  .09724 1.0602 140.3 21.5 1.03   1
2019 01 13 02  10 28 32.452   +23 01 20.10  .09690 1.0599 140.3 21.5 1.06   0
2019 01 13 03  10 28 49.535   +22 55 46.78  .09655 1.0595 140.3 21.5 1.08 179
2019 01 13 04  10 29 06.708   +22 50 10.96  .09620 1.0592 140.2 21.5 1.11 178
2019 01 13 05  10 29 23.971   +22 44 32.60  .09585 1.0589 140.2 21.5 1.14 177
2019 01 13 06  10 29 41.325   +22 38 51.68  .09551 1.0586 140.2 21.5 1.18 176
2019 01 13 07  10 29 58.771   +22 33 08.18  .09516 1.0583 140.1 21.4 1.21 175
2019 01 13 08  10 30 16.309   +22 27 22.07  .09482 1.0580 140.1 21.4 1.24 174
2019 01 13 09  10 30 33.941   +22 21 33.33  .09447 1.0577 140.0 21.4 1.28 173
2019 01 13 10  10 30 51.667   +22 15 41.93  .09413 1.0573 140.0 21.4 1.31 172
2019 01 13 11  10 31 09.489   +22 09 47.84  .09378 1.0570 140.0 21.4 1.35 171
2019 01 13 12  10 31 27.406   +22 03 51.04  .09344 1.0567 139.9 21.4 1.39 171
2019 01 13 13  10 31 45.419   +21 57 51.50  .09309 1.0564 139.9 21.4 1.43 170
2019 01 13 14  10 32 03.530   +21 51 49.20  .09275 1.0561 139.8 21.4 1.46 169
2019 01 13 15  10 32 21.740   +21 45 44.11  .09241 1.0558 139.8 21.4 1.51 168
2019 01 13 16  10 32 40.048   +21 39 36.19  .09207 1.0555 139.7 21.4 1.55 167
2019 01 13 17  10 32 58.457   +21 33 25.43  .09173 1.0552 139.7 21.4 1.59 167
2019 01 13 18  10 33 16.966   +21 27 11.79  .09139 1.0548 139.7 21.4 1.63 166
2019 01 13 19  10 33 35.577   +21 20 55.24  .09104 1.0545 139.6 21.4 1.68 165
2019 01 13 20  10 33 54.291   +21 14 35.76  .09070 1.0542 139.6 21.4 1.73 165
2019 01 13 21  10 34 13.108   +21 08 13.32  .09037 1.0539 139.5 21.3 1.77 164
2019 01 13 22  10 34 32.030   +21 01 47.88  .09003 1.0536 139.5 21.3 1.82 164
2019 01 13 23  10 34 51.056   +20 55 19.42  .08969 1.0533 139.4 21.3 1.87 163
2019 01 14 00  10 35 10.190   +20 48 47.91  .08935 1.0530 139.4 21.3 1.92 162